Wind_Speed
14 15 15 15 15 15 16 16 18 18 17 16 15 14 12 11 11 10 11 12 11 12 11 9 10 8 4 6 9 2 4 1 2 5 8 8 16 18 8 6 8 9 7 14 7 12 13
14 15 15 14 14 14 15 16 16 16 15 14 13 12 11 10 10 11 11 11 13 13 10 8 9 5 4 7 2 2 2 6 7 8 17 17 6 8 4 6 7 12 15 12 7 6 4
15 14 14 13 13 13 14 14 14 14 13 12 11 10 10 9 10 11 12 14 15 12 8 8 7 6 8 13 5 2 1 5 7 9 14 4 6 11 9 6 9 14 6 7 8 13 5
15 13 13 13 12 12 12 13 12 11 10 9 8 7 9 10 11 13 15 16 13 9 8 7 7 8 8 4 7 5 4 2 6 7 7 4 4 9 8 9 4 3 5 4 6 11 9
15 13 13 12 11 11 11 11 8 7 6 5 5 6 9 12 14 16 16 13 10 8 7 8 8 7 8 3 8 2 6 7 2 3 4 2 3 4 3 3 3 2 5 7 4 13 5
16 13 13 11 10 9 9 7 5 4 3 2 3 7 11 15 17 18 15 11 7 6 8 8 6 5 12 4 7 7 4 4 3 4 4 3 4 2 5 4 3 4 3 5 8 3 3
15 14 11 11 9 8 7 4 3 2 1 2 6 9 14 17 18 17 15 10 6 2 12 11 8 10 6 3 7 9 5 2 4 8 4 10 5 4 4 4 3 3 5 10 5 5 3
16 14 12 9 8 7 5 4 2 1 3 4 8 11 14 16 17 16 16 5 4 2 7 15 4 5 2 3 5 9 9 3 4 6 7 4 4 4 3 2 5 6 6 5 3 4 4
17 15 12 8 8 6 5 4 3 4 6 6 8 10 13 14 13 14 12 4 7 5 5 5 4 8 3 4 1 8 2 9 8 6 5 6 3 2 4 7 9 8 6 5 3 6 3
16 15 12 9 8 5 5 5 5 6 7 7 9 11 13 12 9 8 9 3 7 6 4 3 3 3 3 5 4 3 5 5 4 3 10 6 5 4 4 8 7 5 6 6 6 4 3
17 16 12 9 8 6 6 7 7 8 8 9 8 11 12 12 3 8 6 7 2 5 4 7 5 8 7 2 12 2 4 4 4 4 7 2 4 8 9 4 4 1 2 4 3 4 3
17 16 12 10 8 6 7 8 10 10 10 10 10 13 13 3 4 4 6 2 1 5 2 2 6 5 5 4 1 7 3 2 2 6 8 5 11 4 4 3 3 5 4 6 5 2 2
18 16 13 10 8 6 7 10 12 12 11 10 10 12 10 5 2 3 2 4 5 3 6 5 4 7 7 3 4 7 5 3 3 3 2 3 4 4 3 4 1 4 6 4 4 4 3
19 16 13 11 8 6 7 12 15 14 13 12 11 11 7 7 3 5 3 4 1 4 5 5 6 4 7 2 4 3 6 4 8 6 3 5 1 5 5 5 2 4 3 4 0 1 4
19 17 13 11 8 5 7 13 16 16 15 13 11 8 5 5 4 6 2 3 5 4 5 6 5 5 4 3 1 4 7 3 5 7 4 4 3 3 6 3 3 6 5 3 4 2 3
20 16 14 11 8 5 7 14 17 18 17 14 11 7 5 5 4 5 4 4 1 6 3 4 5 6 7 8 4 3 3 5 3 5 5 4 4 2 4 1 3 4 2 5 4 1 3
20 17 14 12 8 6 7 14 17 18 19 16 12 5 8 6 5 3 3 5 3 5 12 5 3 2 2 7 6 4 4 4 7 2 10 5 4 3 1 4 4 4 3 4 2 4 4
20 17 14 11 8 6 8 13 16 19 21 20 11 1 10 12 3 4 2 4 2 4 4 3 3 4 3 4 5 5 5 4 5 8 3 3 4 3 3 3 3 1 2 4 4 3 1
20 17 14 11 8 6 7 13 16 21 26 22 7 5 10 15 3 2 7 2 2 5 4 0 5 6 5 4 5 9 5 7 10 5 1 3 2 3 4 4 5 2 2 5 5 3 4
21 17 14 11 9 7 6 12 18 23 28 21 3 2 4 10 9 4 4 3 3 8 2 4 5 4 1 5 4 4 4 3 7 4 3 3 2 5 5 2 1 2 4 4 6 3 3
21 18 15 11 9 7 6 11 18 23 26 13 4 4 10 4 6 5 6 8 5 2 1 3 1 3 4 3 4 5 5 4 2 1 1 3 3 4 4 5 5 3 4 6 4 5 4
21 18 15 12 10 8 8 9 16 20 21 12 4 3 15 11 22 4 5 6 9 8 6 4 3 6 8 5 3 5 8 5 4 5 4 4 1 2 3 5 7 4 7 8 7 4 3
22 18 15 12 10 9 8 9 13 17 17 8 4 1 3 3 6 3 4 1 3 9 3 5 7 11 13 7 20 18 19 15 9 5 3 3 4 3 3 4 6 4 4 3 1 2 1
22 18 15 13 10 9 8 9 11 13 13 5 4 3 4 2 2 4 6 5 8 7 6 14 15 9 12 17 16 14 17 16 11 10 7 4 3 3 2 4 2 4 4 2 6 5 6
22 19 16 13 11 9 9 8 9 11 11 8 8 5 4 1 2 2 4 10 21 27 13 19 14 14 17 5 4 5 5 6 5 7 5 5 4 3 3 1 6 6 3 3 4 3 8
22 19 17 14 12 10 9 9 9 9 8 7 11 8 5 8 3 4 3 19 5 4 4 5 11 8 5 5 4 4 4 6 3 2 11 6 6 4 2 3 6 6 4 7 3 3 7
22 20 17 15 12 10 9 8 8 9 8 8 10 8 6 5 6 7 3 7 11 9 4 6 3 3 4 3 2 3 3 2 5 7 3 3 2 4 3 3 7 7 3 3 4 5 9
22 20 17 15 12 11 9 8 8 8 8 8 10 9 8 5 6 5 6 8 11 16 5 11 4 0 4 3 3 3 2 4 2 7 6 7 6 3 2 3 7 7 2 6 5 9 12
22 20 17 15 13 11 9 8 8 8 8 9 10 9 7 4 5 5 9 9 12 10 12 19 4 6 7 4 1 2 0 1 1 3 4 2 7 6 8 6 7 7 6 9 8 13 6
Wind_Direction
254 259 260 267 274 282 289 293 295 295 295 289 281 274 267 254 241 224 209 205 200 190 187 201 227 243 264 267 265 92 33 63 230 211 234 245 270 230 266 235 96 98 89 88 96 71 82
250 254 261 269 275 282 287 295 295 294 291 285 277 270 256 239 224 210 200 190 180 176 182 210 229 242 253 264 252 322 215 340 349 271 309 266 305 317 337 78 117 122 117 123 145 94 95
245 247 257 264 274 282 291 295 295 293 290 284 274 260 243 223 207 193 182 170 167 173 188 211 218 224 259 256 332 211 290 333 23 6 0 39 333 7 349 70 118 145 124 150 166 164 165
241 244 254 264 273 283 291 295 292 298 295 288 265 239 218 199 182 174 165 160 165 179 195 206 208 226 255 254 257 208 353 270 331 350 13 340 338 340 25 97 18 179 116 142 228 177 179
236 242 251 257 273 281 291 289 296 299 300 279 243 207 192 175 166 158 156 159 169 181 190 198 210 227 266 246 174 169 209 349 180 26 329 312 351 298 50 132 354 285 233 159 184 172 149
232 233 246 256 266 280 284 286 288 303 294 257 183 176 168 162 156 155 151 153 159 170 183 187 199 280 258 244 160 168 205 159 188 211 249 243 261 7 14 70 208 301 264 164 146 162 91
229 233 236 248 262 271 277 274 272 290 239 165 152 158 154 154 154 151 149 139 127 151 197 201 186 214 141 184 145 167 165 180 261 209 228 233 77 143 108 30 336 324 9 77 90 74 70
223 231 229 239 253 261 265 242 236 208 144 155 148 151 154 162 161 163 158 147 5 305 234 252 233 200 190 248 161 122 167 221 226 240 264 9 83 1 106 77 8 349 39 30 101 103 90
211 225 225 227 244 252 239 214 192 164 142 154 144 152 158 163 165 169 173 334 292 225 195 217 178 152 189 305 184 139 206 308 255 247 258 112 143 320 13 52 29 22 84 32 20 346 320
206 217 218 218 236 239 217 197 178 162 152 150 144 152 164 162 170 191 239 267 269 17 95 165 230 166 176 125 57 90 241 288 313 25 114 97 34 359 38 53 39 41 22 7 331 5 252
205 210 210 211 226 225 206 191 178 167 162 144 141 161 164 156 186 192 256 285 288 337 82 205 151 160 152 232 151 174 215 329 299 65 71 70 74 33 58 62 38 139 336 261 269 280 324
199 205 204 208 215 216 200 187 181 174 166 147 148 158 158 156 151 209 286 290 333 46 188 153 140 179 157 176 126 147 165 304 345 68 66 97 81 56 354 314 225 270 284 258 216 174 20
197 200 200 202 210 208 199 187 184 179 170 160 144 153 153 156 189 244 217 149 46 128 159 147 181 146 122 166 147 158 170 60 24 87 145 127 105 150 344 301 110 13 29 357 5 11 218
193 197 194 196 206 205 200 187 184 181 177 167 146 156 164 190 201 205 182 56 331 157 200 170 129 150 123 86 4 117 124 84 14 15 190 140 41 358 359 66 341 308 74 129 353 40 292
190 193 189 193 201 205 196 186 184 182 180 172 170 167 181 180 211 200 105 75 223 328 92 114 142 142 106 87 195 121 76 98 31 4 61 88 107 68 59 356 39 326 45 165 106 349 49
185 189 186 191 193 200 185 184 183 182 179 172 173 167 211 199 202 190 73 236 295 11 22 119 167 186 163 173 178 122 89 0 100 356 346 23 103 53 159 231 354 85 211 41 1 74 312
182 186 185 189 185 192 177 181 181 181 176 168 159 166 196 200 194 153 160 240 100 8 31 14 294 116 215 156 187 146 77 57 12 13 61 20 85 256 58 40 50 11 22 22 90 117 159
180 185 183 186 180 181 170 178 179 177 169 166 166 119 185 174 132 192 226 253 87 86 323 336 343 50 113 80 58 79 103 72 348 338 58 21 127 70 117 78 34 331 70 85 109 291 60
181 182 182 182 175 168 166 176 176 173 169 164 179 173 176 174 143 283 275 72 64 148 236 270 31 47 29 83 77 101 87 35 18 49 117 356 51 55 8 7 338 300 105 122 111 96 172
180 179 181 177 171 160 158 176 174 173 172 183 196 100 136 197 239 199 221 139 100 32 42 46 108 76 41 69 77 120 103 75 55 71 49 24 85 142 175 182 158 327 323 337 141 113 212
180 178 175 173 165 159 148 172 173 175 181 193 233 183 169 204 272 264 191 171 150 147 318 95 78 208 131 122 130 104 96 123 133 168 6 76 114 31 359 338 321 315 317 330 307 243 176
177 176 172 171 162 160 146 160 176 181 189 206 306 41 172 173 210 247 177 210 168 187 142 232 190 210 109 69 60 167 143 174 175 215 173 29 208 64 308 32 10 311 302 279 262 276 5
175 175 170 169 160 159 147 146 169 183 190 198 195 281 155 34 183 101 213 242 196 115 52 285 108 90 77 93 76 64 79 68 99 131 104 90 113 81 266 3 345 2 239 300 287 21 353
175 172 168 167 159 156 152 143 156 174 179 176 154 82 92 286 112 182 154 216 132 114 105 34 103 97 121 117 100 79 61 45 81 51 106 115 86 82 217 7 27 229 314 56 111 54 16
176 172 168 166 161 155 152 154 150 166 180 183 175 135 131 228 314 309 170 111 85 88 75 61 49 120 140 75 60 44 358 22 347 31 47 135 115 76 110 227 296 322 90 103 109 53 39
177 174 171 169 163 158 150 148 156 166 174 175 165 154 145 124 286 296 159 139 127 101 52 59 109 130 107 74 77 143 195 200 168 118 38 46 89 105 72 137 218 227 135 116 97 253 70
178 176 175 172 167 162 156 150 149 155 156 154 157 157 132 107 35 39 109 132 132 101 106 121 137 102 76 77 99 154 253 210 165 168 184 47 351 159 152 217 281 247 129 104 123 226 140
179 179 178 175 173 169 165 159 154 152 149 150 137 146 159 112 82 92 117 119 151 137 135 156 90 280 62 88 135 218 158 241 145 170 173 164 151 194 189 230 273 233 99 157 167 147 148
180 181 181 179 177 176 173 168 162 156 150 153 139 147 150 131 141 117 102 117 136 147 155 166 173 152 152 102 140 131 11 3 135 230 179 166 182 179 179 214 217 186 158 173 201 158 146
Height
1507 1509 1508 1508 1509 1508 1507 1506 1505 1503 1501 1500 1499 1498 1498 1498 1498 1499 1501 1502 1505 1507 1509 1511 1511 1513 1515 1515 1511 1509 1508 1508 1507 1507 1507 1506 1507 1506 1505 1501 1502 1507 1508 1509 1511 1512 1513
1503 1505 1506 1505 1506 1504 1504 1503 1501 1499 1498 1497 1496 1495 1495 1496 1496 1498 1499 1501 1504 1507 1510 1511 1511 1513 1515 1515 1509 1509 1508 1508 1507 1507 1505 1505 1503 1502 1499 1499 1502 1505 1509 1513 1514 1515 1516
1499 1501 1503 1503 1502 1502 1501 1499 1497 1496 1495 1493 1493 1493 1493 1494 1495 1497 1499 1501 1505 1508 1510 1510 1511 1513 1514 1510 1507 1507 1507 1507 1505 1505 1503 1501 1501 1501 1502 1502 1505 1506 1513 1513 1516 1516 1517
1497 1498 1500 1500 1500 1499 1498 1496 1495 1493 1492 1491 1491 1490 1491 1492 1495 1496 1499 1502 1506 1508 1510 1510 1512 1513 1511 1508 1507 1507 1506 1507 1506 1506 1505 1503 1503 1503 1504 1503 1505 1509 1513 1526 1514 1513 1515
1494 1496 1496 1497 1497 1496 1495 1494 1492 1491 1490 1489 1489 1489 1490 1492 1495 1497 1500 1503 1506 1508 1509 1510 1513 1514 1510 1506 1506 1507 1507 1507 1507 1508 1508 1506 1506 1506 1506 1510 1521 1514 1528 1523 1517 1510 1514
1491 1492 1493 1494 1495 1493 1492 1493 1491 1490 1490 1489 1489 1489 1491 1493 1495 1498 1501 1505 1507 1509 1510 1511 1513 1517 1507 1506 1505 1506 1507 1508 1508 1509 1510 1509 1509 1510 1511 1520 1537 1523 1518 1513 1521 1513 1512
1487 1489 1490 1492 1492 1490 1490 1490 1490 1489 1489 1489 1489 1491 1492 1494 1497 1500 1503 1505 1511 1512 1509 1506 1506 1504 1503 1504 1505 1506 1508 1508 1508 1508 1510 1507 1516 1522 1514 1509 1507 1508 1511 1520 1517 1514 1516
1483 1486 1488 1489 1489 1488 1488 1489 1488 1489 1489 1490 1490 1492 1493 1496 1498 1501 1503 1504 1508 1511 1509 1504 1504 1505 1504 1505 1505 1506 1507 1509 1507 1510 1506 1512 1522 1511 1508 1508 1509 1509 1514 1523 1518 1514 1516
1478 1483 1485 1486 1486 1485 1486 1487 1487 1489 1489 1491 1491 1493 1495 1498 1501 1503 1504 1505 1506 1506 1505 1504 1504 1503 1504 1505 1504 1505 1508 1507 1507 1509 1507 1516 1516 1510 1509 1513 1516 1518 1523 1524 1525 1519 1517
1474 1479 1482 1483 1484 1483 1485 1486 1487 1489 1490 1492 1492 1494 1497 1500 1505 1505 1504 1504 1504 1504 1512 1506 1504 1504 1504 1503 1505 1506 1507 1508 1504 1507 1508 1514 1512 1512 1511 1517 1519 1525 1520 1521 1524 1531 1544
1472 1476 1478 1480 1481 1481 1483 1484 1486 1488 1491 1492 1493 1496 1499 1502 1503 1504 1505 1503 1504 1504 1544 1503 1501 1502 1504 1505 1506 1507 1506 1506 1507 1505 1507 1519 1516 1518 1519 1522 1519 1526 1520 1522 1524 1531 1533
1469 1472 1475 1477 1478 1480 1481 1482 1485 1488 1491 1493 1495 1497 1500 1502 1503 1504 1504 1504 1505 1521 1531 1502 1500 1502 1504 1504 1504 1506 1507 1508 1506 1507 1511 1516 1515 1519 1522 1519 1518 1519 1521 1521 1523 1531 1559
1466 1469 1473 1474 1476 1478 1479 1481 1484 1488 1490 1493 1495 1498 1501 1502 1503 1503 1503 1504 1522 1534 1496 1504 1502 1500 1504 1505 1506 1506 1508 1512 1519 1524 1525 1519 1521 1520 1520 1522 1519 1521 1530 1559 1561 1569 1565
1463 1467 1470 1472 1475 1476 1477 1480 1483 1487 1490 1493 1495 1498 1501 1502 1503 1504 1504 1507 1520 1495 1497 1493 1497 1500 1508 1505 1507 1507 1511 1520 1516 1517 1523 1532 1542 1526 1522 1525 1529 1527 1529 1568 1562 1578 1566
1461 1464 1468 1470 1473 1474 1475 1478 1482 1486 1489 1492 1496 1499 1501 1502 1503 1504 1506 1522 1512 1497 1491 1496 1499 1507 1509 1507 1510 1512 1519 1523 1523 1520 1529 1532 1538 1526 1526 1525 1526 1530 1543 1531 1552 1558 1576
1458 1462 1466 1469 1471 1473 1474 1476 1480 1484 1488 1492 1495 1498 1500 1502 1503 1505 1508 1515 1498 1494 1492 1495 1507 1503 1514 1512 1514 1514 1518 1521 1524 1521 1518 1524 1540 1527 1527 1527 1527 1529 1530 1555 1560 1572 1566
1455 1461 1464 1467 1469 1471 1472 1475 1478 1482 1487 1491 1496 1499 1500 1502 1504 1505 1516 1507 1496 1497 1498 1500 1501 1501 1501 1509 1509 1513 1521 1524 1523 1522 1521 1526 1533 1537 1528 1536 1539 1539 1541 1540 1545 1565 1580
1454 1459 1463 1466 1468 1469 1471 1474 1477 1481 1485 1491 1495 1498 1498 1500 1505 1504 1508 1498 1496 1499 1501 1500 1499 1497 1503 1504 1510 1515 1526 1527 1525 1525 1529 1529 1537 1556 1541 1533 1531 1532 1537 1541 1574 1565 1577
1453 1458 1462 1465 1467 1469 1470 1472 1475 1479 1484 1490 1493 1495 1497 1499 1510 1510 1499 1497 1497 1501 1501 1502 1502 1502 1502 1509 1520 1520 1527 1529 1527 1527 1533 1531 1539 1566 1553 1544 1536 1536 1534 1539 1551 1566 1570
1452 1457 1461 1463 1466 1468 1469 1472 1474 1478 1484 1489 1491 1496 1497 1499 1497 1499 1499 1499 1501 1501 1501 1501 1503 1505 1507 1512 1512 1523 1529 1530 1530 1530 1530 1530 1533 1548 1565 1546 1541 1542 1539 1538 1549 1575 1567
1451 1456 1459 1463 1465 1468 1470 1472 1474 1478 1483 1489 1488 1487 1489 1501 1496 1497 1496 1498 1503 1506 1503 1504 1506 1507 1509 1516 1518 1525 1528 1532 1533 1532 1532 1533 1544 1541 1541 1540 1539 1538 1540 1541 1543 1545 1558
1451 1456 1459 1463 1465 1468 1470 1472 1474 1479 1484 1487 1485 1484 1487 1488 1491 1494 1496 1497 1500 1502 1504 1506 1507 1506 1509 1518 1521 1524 1524 1528 1531 1532 1532 1535 1552 1547 1548 1543 1544 1545 1543 1541 1539 1537 1537
1451 1455 1459 1463 1465 1468 1470 1472 1475 1478 1483 1485 1486 1485 1485 1489 1491 1496 1496 1493 1494 1497 1503 1504 1506 1513 1519 1522 1520 1522 1522 1524 1527 1531 1535 1541 1552 1562 1564 1554 1556 1562 1542 1535 1533 1533 1536
1450 1455 1459 1463 1466 1469 1471 1473 1475 1478 1481 1483 1483 1484 1486 1496 1492 1493 1492 1493 1497 1497 1503 1507 1507 1510 1521 1521 1522 1524 1525 1528 1530 1533 1533 1545 1552 1565 1575 1567 1576 1538 1531 1530 1533 1536 1536
1450 1455 1458 1462 1466 1469 1471 1473 1475 1478 1480 1482 1484 1486 1487 1497 1491 1490 1491 1495 1497 1500 1507 1510 1512 1514 1519 1521 1532 1539 1547 1545 1541 1538 1538 1538 1552 1572 1572 1571 1553 1535 1530 1534 1538 1544 1541
1450 1455 1459 1463 1466 1469 1471 1474 1476 1478 1480 1482 1484 1485 1487 1490 1494 1492 1492 1494 1502 1506 1511 1516 1517 1519 1520 1526 1541 1554 1554 1543 1546 1543 1543 1544 1547 1562 1577 1577 1581 1541 1531 1531 1533 1553 1541
1450 1454 1459 1463 1466 1469 1472 1474 1476 1478 1480 1482 1484 1486 1487 1489 1491 1491 1493 1496 1499 1504 1514 1517 1520 1521 1522 1537 1547 1553 1548 1533 1547 1550 1558 1563 1557 1565 1575 1576 1556 1533 1531 1531 1547 1547 1538
1449 1454 1459 1462 1466 1469 1472 1474 1476 1478 1479 1482 1484 1486 1487 1489 1493 1493 1493 1495 1499 1502 1513 1516 1522 1524 1527 1537 1545 1547 1548 1540 1537 1535 1543 1552 1562 1564 1559 1557 1562 1525 1528 1537 1533 1532 1534
1449 1454 1458 1462 1466 1469 1472 1474 1476 1478 1480 1482 1484 1486 1487 1490 1494 1496 1496 1498 1499 1502 1506 1511 1513 1515 1519 1529 1536 1536 1541 1539 1541 1544 1526 1539 1534 1544 1544 1539 1521 1522 1522 1524 1527 1529 1532